TimeEDT,TemperatureF,Dew PointF,Humidity,Sea Level PressureIn,VisibilityMPH,Wind Direction,Wind SpeedMPH,Gust SpeedMPH,PrecipitationIn,Events,Conditions,WindDirDegrees,DateUTC
12:15 AM,76.6,74.3,92,30.28,10.0,Calm,Calm,-,N/A,,Clear,0,2013-07-16 04:15:00
12:35 AM,76.5,74.3,93,30.28,10.0,Calm,Calm,-,N/A,,Clear,0,2013-07-16 04:35:00
12:55 AM,75.9,74.5,95,30.28,10.0,Calm,Calm,-,N/A,,Clear,0,2013-07-16 04:55:00
1:15 AM,75.4,74.1,96,30.28,10.0,Calm,Calm,-,N/A,,Clear,0,2013-07-16 05:15:00
1:35 AM,76.1,73.8,92,30.28,10.0,SSW,3.5,-,N/A,,Clear,200,2013-07-16 05:35:00
1:55 AM,75.4,73.6,94,30.27,10.0,Calm,Calm,-,N/A,,Clear,0,2013-07-16 05:55:00
2:15 AM,75.2,73.4,94,30.27,10.0,Calm,Calm,-,N/A,,Clear,0,2013-07-16 06:15:00
2:35 AM,75.0,72.9,93,30.27,10.0,Calm,Calm,-,N/A,,Clear,0,2013-07-16 06:35:00
2:55 AM,74.7,72.7,94,30.27,10.0,Calm,Calm,-,N/A,,Clear,0,2013-07-16 06:55:00
3:15 AM,73.4,72.5,97,30.27,10.0,Calm,Calm,-,N/A,,Clear,0,2013-07-16 07:15:00
3:35 AM,73.4,72.5,97,30.27,10.0,Calm,Calm,-,N/A,,Clear,0,2013-07-16 07:35:00
3:55 AM,73.4,72.1,96,30.27,10.0,Calm,Calm,-,N/A,,Clear,0,2013-07-16 07:55:00
4:15 AM,72.7,72.1,98,30.27,10.0,Calm,Calm,-,N/A,,Clear,0,2013-07-16 08:15:00
4:35 AM,72.3,71.8,98,30.27,10.0,Calm,Calm,-,N/A,,Clear,0,2013-07-16 08:35:00
4:55 AM,71.8,71.6,99,30.27,10.0,Calm,Calm,-,N/A,,Clear,0,2013-07-16 08:55:00
5:15 AM,71.8,71.6,99,30.27,10.0,Calm,Calm,-,N/A,,Clear,0,2013-07-16 09:15:00
5:35 AM,71.8,71.6,99,30.27,10.0,Calm,Calm,-,N/A,,Clear,0,2013-07-16 09:35:00
5:55 AM,71.6,70.9,98,30.28,10.0,Calm,Calm,-,N/A,,Clear,0,2013-07-16 09:55:00
6:15 AM,71.6,71.4,99,30.28,10.0,Calm,Calm,-,N/A,,Clear,0,2013-07-16 10:15:00
6:35 AM,72.0,71.8,99,30.29,10.0,Calm,Calm,-,N/A,,Clear,0,2013-07-16 10:35:00
6:55 AM,72.0,71.8,99,30.28,10.0,Calm,Calm,-,N/A,,Clear,0,2013-07-16 10:55:00
7:15 AM,72.9,72.5,99,30.28,10.0,Calm,Calm,-,N/A,,Clear,0,2013-07-16 11:15:00
7:35 AM,73.4,73.0,99,30.29,10.0,Calm,Calm,-,N/A,,Clear,0,2013-07-16 11:35:00
7:55 AM,75.2,73.6,95,30.29,10.0,Calm,Calm,-,N/A,,Clear,0,2013-07-16 11:55:00
8:15 AM,76.1,73.9,93,30.29,10.0,Calm,Calm,-,N/A,,Clear,0,2013-07-16 12:15:00
8:35 AM,77.4,72.7,85,30.30,10.0,West,3.5,-,N/A,,Scattered Clouds,280,2013-07-16 12:35:00
8:55 AM,79.2,72.1,79,30.30,10.0,West,3.5,-,N/A,,Clear,280,2013-07-16 12:55:00
9:15 AM,80.6,71.4,73,30.29,10.0,Calm,Calm,-,N/A,,Clear,0,2013-07-16 13:15:00
9:35 AM,81.7,71.2,70,30.29,10.0,West,3.5,-,N/A,,Clear,280,2013-07-16 13:35:00
9:55 AM,82.8,71.2,68,30.29,10.0,NW,3.5,-,N/A,,Clear,310,2013-07-16 13:55:00
10:15 AM,83.5,70.3,64,30.29,10.0,WNW,3.5,-,N/A,,Clear,300,2013-07-16 14:15:00
10:35 AM,84.6,70.0,61,30.29,10.0,WNW,4.6,-,N/A,,Clear,300,2013-07-16 14:35:00
10:55 AM,84.9,70.0,61,30.29,10.0,NW,3.5,-,N/A,,Clear,310,2013-07-16 14:55:00
11:15 AM,86.2,69.3,57,30.29,10.0,West,3.5,-,N/A,,Clear,280,2013-07-16 15:15:00
11:55 AM,86.9,68.7,55,30.28,10.0,West,3.5,-,N/A,,Clear,280,2013-07-16 15:55:00
12:15 PM,87.4,70.0,56,30.27,10.0,NNW,3.5,-,N/A,,Clear,330,2013-07-16 16:15:00
12:35 PM,87.4,68.5,53,30.27,10.0,Calm,Calm,-,N/A,,Clear,0,2013-07-16 16:35:00
12:55 PM,88.2,69.1,53,30.26,10.0,Calm,Calm,-,N/A,,Clear,0,2013-07-16 16:55:00
1:15 PM,89.4,68.7,50,30.26,10.0,West,3.5,-,N/A,,Clear,270,2013-07-16 17:15:00
1:35 PM,89.4,69.1,51,30.26,10.0,WNW,3.5,-,N/A,,Clear,290,2013-07-16 17:35:00
1:55 PM,90.1,67.1,46,30.25,10.0,WNW,3.5,-,N/A,,Clear,290,2013-07-16 17:55:00
2:15 PM,89.8,67.5,48,30.24,10.0,Calm,Calm,-,N/A,,Clear,0,2013-07-16 18:15:00
2:35 PM,90.5,67.6,47,30.23,10.0,West,4.6,-,N/A,,Clear,260,2013-07-16 18:35:00
2:55 PM,90.9,67.8,47,30.23,10.0,Calm,Calm,-,N/A,,Clear,0,2013-07-16 18:55:00
3:15 PM,91.8,69.6,48,30.22,10.0,Calm,Calm,-,N/A,,Clear,0,2013-07-16 19:15:00
3:35 PM,91.6,69.1,48,30.22,10.0,Calm,Calm,-,N/A,,Clear,0,2013-07-16 19:35:00
4:55 PM,91.6,68.4,46,30.21,10.0,Calm,Calm,-,N/A,,Scattered Clouds,0,2013-07-16 20:55:00
5:15 PM,91.9,69.4,48,30.20,10.0,Calm,Calm,-,N/A,,Scattered Clouds,0,2013-07-16 21:15:00
5:35 PM,91.6,68.9,47,30.20,10.0,Calm,Calm,-,N/A,,Scattered Clouds,0,2013-07-16 21:35:00
5:55 PM,91.4,69.6,49,30.19,10.0,Calm,Calm,-,N/A,,Scattered Clouds,0,2013-07-16 21:55:00
6:15 PM,91.4,69.1,48,30.19,10.0,Calm,Calm,-,N/A,,Scattered Clouds,0,2013-07-16 22:15:00
6:35 PM,91.4,69.6,49,30.19,10.0,Calm,Calm,-,N/A,,Clear,0,2013-07-16 22:35:00
6:55 PM,90.3,71.8,54,30.19,10.0,Calm,Calm,-,N/A,,Clear,0,2013-07-16 22:55:00
7:15 PM,89.4,72.0,56,30.19,10.0,Calm,Calm,-,N/A,,Clear,0,2013-07-16 23:15:00
7:35 PM,88.7,70.7,55,30.20,10.0,Calm,Calm,-,N/A,,Clear,0,2013-07-16 23:35:00
7:55 PM,86.4,76.6,73,30.21,10.0,Calm,Calm,-,N/A,,Clear,0,2013-07-16 23:55:00
8:15 PM,85.1,75.6,73,30.21,10.0,Calm,Calm,-,N/A,,Scattered Clouds,0,2013-07-17 00:15:00
8:35 PM,83.8,75.2,75,30.22,10.0,NNW,3.5,-,N/A,,Scattered Clouds,330,2013-07-17 00:35:00
8:55 PM,82.6,69.1,64,30.22,10.0,NNW,3.5,-,N/A,,Clear,330,2013-07-17 00:55:00
9:15 PM,81.0,69.1,67,30.22,10.0,Calm,Calm,-,N/A,,Clear,0,2013-07-17 01:15:00
9:35 PM,79.9,68.9,69,30.21,10.0,Calm,Calm,-,N/A,,Clear,0,2013-07-17 01:35:00
9:55 PM,79.7,69.1,70,30.22,10.0,Calm,Calm,-,N/A,,Clear,0,2013-07-17 01:55:00
10:15 PM,79.2,70.2,74,30.23,10.0,Calm,Calm,-,N/A,,Clear,0,2013-07-17 02:15:00
10:35 PM,79.0,70.2,74,30.23,10.0,Calm,Calm,-,N/A,,Clear,0,2013-07-17 02:35:00
10:55 PM,77.7,70.9,79,30.22,10.0,Calm,Calm,-,N/A,,Clear,0,2013-07-17 02:55:00
11:15 PM,77.0,70.7,81,30.22,10.0,Calm,Calm,-,N/A,,Clear,0,2013-07-17 03:15:00
11:35 PM,77.7,70.9,79,30.22,10.0,Calm,Calm,-,N/A,,Clear,0,2013-07-17 03:35:00
11:55 PM,76.6,73.4,90,30.21,10.0,Calm,Calm,-,N/A,,Clear,0,2013-07-17 03:55:00